This demonstration page uses our WeatherBlox Daily Observations layout. Learn more.

Left ArrowRight Arrow

39.51506, -84.39828

Hourly Observations for June 12, 2022

Temp ( °F °C ) Dew Point ( °F °C ) Humidity (%) Winds ( mph kmh ) Pressure ( in mb ) Visibility ( mi km ) Precip ( " mm )
12:15 am 00:15 Cloudy with Rain 66 19 66 19 100 100 NNE 3 6 29.83 1010 7 11 0.00 0.00
12:35 am 00:35 Cloudy with Rain 66 19 N/A N/A Calm 29.85 1011 5 8 0.00 0.00
12:55 am 00:55 Cloudy with Rain 66 19 N/A N/A N 5 7 29.86 1011 4 6 0.00 0.00
1:15 am 01:15 Cloudy with Heavy Rain 66 19 N/A N/A NNE 3 6 29.86 1011 3 5 0.00 0.00
1:35 am 01:35 Cloudy with Heavy Rain 66 19 N/A N/A Calm 29.86 1011 3 4 0.00 0.00
1:55 am 01:55 Cloudy with Heavy Rain 66 19 N/A N/A Calm 29.86 1011 1 2 0.00 0.00
2:15 am 02:15 Cloudy with Light Rain 66 19 N/A N/A ESE 6 9 29.85 1011 3 5 0.00 0.00
2:35 am 02:35 Cloudy with Light Rain 66 19 N/A N/A Calm 29.85 1011 3 5 0.00 0.00
2:55 am 02:55 Cloudy with Haze 66 19 N/A N/A Calm 29.85 1011 5 8 0.00 0.00
3:15 am 03:15 Mostly Cloudy with Haze 66 19 N/A N/A SSE 3 6 29.85 1011 7 11 0.00 0.00
3:35 am 03:35 Cloudy 66 19 N/A N/A Calm 29.85 1011 7 11 0.00 0.00
3:55 am 03:55 Cloudy 66 19 N/A N/A S 3 6 29.83 1010 10 16 0.00 0.00
4:15 am 04:15 Cloudy 66 19 N/A N/A Calm 29.82 1010 7 11 0.00 0.00
4:35 am 04:35 Mostly Cloudy with Light Rain 66 19 N/A N/A Calm 29.83 1010 7 11 0.00 0.00
4:55 am 04:55 Hazy 64 18 N/A N/A SSW 3 6 29.82 1010 5 8 0.00 0.00
5:15 am 05:15 Hazy 64 18 N/A N/A SSW 5 7 29.82 1010 7 11 0.00 0.00
5:35 am 05:35 Clear 64 18 N/A N/A S 5 7 29.82 1010 7 11 0.00 0.00
5:55 am 05:55 Hazy 64 18 N/A N/A SSW 3 6 29.83 1010 5 8 0.00 0.00
6:15 am 06:15 Partly Cloudy with Mist and Fog 64 18 N/A N/A Calm 29.83 1010 2 2 0.00 0.00
6:35 am 06:35 Mostly Cloudy with Fog 64 18 N/A N/A Calm 29.83 1010 1 1 0.00 0.00
6:55 am 06:55 Partly Cloudy with Mist and Fog 64 18 N/A N/A SSW 5 7 29.83 1010 2 3 0.00 0.00
7:15 am 07:15 Hazy 66 19 N/A N/A S 7 11 29.84 1010 7 11 0.00 0.00
7:35 am 07:35 Sunny 66 19 N/A N/A SSW 5 7 29.85 1011 7 11 0.00 0.00
7:55 am 07:55 Sunny 68 20 N/A N/A S 5 7 29.85 1011 7 11 0.00 0.00
8:15 am 08:15 Partly Cloudy 68 20 68 20 100 100 SW 7 11 29.85 1011 7 11 0.00 0.00
8:35 am 08:35 Partly Cloudy 70 21 68 20.2 95 95 SSW 10 17 29.85 1011 10 16 0.00 0.00
8:55 am 08:55 Sunny 70 21.3 68 20 92 92 SSW 10 17 29.86 1011 10 16 0.00 0.00
9:15 am 09:15 Partly Cloudy 71 21.9 69 20.4 91 91 SW 6 9 29.86 1011 10 16 0.00 0.00
9:35 am 09:35 Partly Cloudy 72 22.4 69 20.3 88 88 WNW 7 11 29.87 1011 10 16 0.00 0.00
9:55 am 09:55 Mostly Cloudy 73 22.9 69 20.4 86 86 SW 7 11 29.87 1011 10 16 0.00 0.00
10:15 am 10:15 Cloudy 73 23 69 20.5 86 86 WSW 6 9 29.87 1011 10 16 0.00 0.00
10:35 am 10:35 Mostly Cloudy 74 23.3 69 20.7 85 85 WSW 6 9 29.88 1012 10 16 0.00 0.00
10:55 am 10:55 Mostly Cloudy 74 23.5 69 20.8 85 85 SW 7 11 29.87 1011 10 16 0.00 0.00
11:15 am 11:15 Mostly Cloudy 76 24.4 71 21.5 84 84 SSW 7 11 29.86 1011 10 16 0.00 0.00
11:35 am 11:35 Partly Cloudy 78 25.3 71 21.8 81 81 SSW 6 9 29.86 1011 10 16 0.00 0.00
11:55 am 11:55 Partly Cloudy 77 25.1 70 21.3 80 80 SSW 9 15 29.87 1012 10 16 0.00 0.00
12:15 pm 12:15 Mostly Cloudy 78 25.8 71 21.7 78 78 SSW 8 13 29.87 1012 10 16 0.00 0.00
12:35 pm 12:35 Mostly Cloudy 78 25.8 71 21.4 77 77 SSW 8 13 29.87 1012 10 16 0.00 0.00
12:55 pm 12:55 Partly Cloudy 81 27 72 22 74 74 S 9 15 29.87 1011 10 16 0.00 0.00
1:15 pm 13:15 Mostly Cloudy 80 26.7 71 21.8 75 75 SSW 10 17 29.87 1011 10 16 0.00 0.00
1:35 pm 13:35 Cloudy 79 25.9 71 21.6 77 77 SSW 12 19 29.88 1012 10 16 0.00 0.00
1:55 pm 13:55 Cloudy with Light Rain 75 23.7 73 22.6 94 94 SSW 7 11 29.89 1012 5 8 0.00 0.00
2:15 pm 14:15 Mostly Cloudy with Light Rain 75 23.7 74 23.2 97 97 SW 6 9 29.88 1012 10 16 0.01 0.25
2:35 pm 14:35 Partly Cloudy 75 24 74 23.3 96 96 SSW 7 11 29.88 1012 10 16 0.01 0.25
2:55 pm 14:55 Partly Cloudy 75 23.9 73 22.5 92 92 S 7 11 29.87 1011 10 16 0.01 0.25
3:15 pm 15:15 Partly Cloudy 76 24.6 73 22.5 88 88 S 7 11 29.86 1011 10 16 0.00 0.00
3:35 pm 15:35 Partly Cloudy 77 25.1 72 22.3 85 85 SSE 8 13 29.84 1011 10 16 0.00 0.00
3:55 pm 15:55 Sunny 78 25.6 72 22.1 81 81 SSE 5 7 29.82 1010 10 16 0.00 0.00
4:15 pm 16:15 Sunny 78 25.6 72 22.4 83 83 SW 8 13 29.84 1011 10 16 0.00 0.00
4:35 pm 16:35 Sunny 78 25.6 73 22.6 84 84 SSW 7 11 29.84 1011 10 16 0.00 0.00
4:55 pm 16:55 Sunny 78 25.6 72 22.1 81 81 S 8 13 29.83 1010 10 16 0.00 0.00
5:15 pm 17:15 Sunny 78 25.8 73 22.5 82 82 S 9 15 29.83 1010 10 16 0.00 0.00
5:35 pm 17:35 Sunny 80 26.6 73 22.7 79 79 S 9 15 29.83 1010 10 16 0.00 0.00
5:55 pm 17:55 Sunny 79 25.9 72 22.3 81 81 SW 7 11 29.83 1010 10 16 0.00 0.00
6:15 pm 18:15 Sunny 81 27.1 73 22.5 76 76 SSE 9 15 29.82 1010 10 16 0.00 0.00
6:35 pm 18:35 Partly Cloudy 80 26.5 72 22.1 77 77 S 9 15 29.82 1010 10 16 0.00 0.00
6:55 pm 18:55 Partly Cloudy 81 27.3 72 22.3 74 74 S 10 17 29.82 1010 10 16 0.00 0.00
7:15 pm 19:15 Partly Cloudy 80 26.8 72 22.3 76 76 SSE 8 13 29.83 1010 10 16 0.00 0.00
7:35 pm 19:35 Partly Cloudy 80 26.5 72 22.4 78 78 S 8 13 29.84 1010 10 16 0.00 0.00
7:55 pm 19:55 Partly Cloudy 80 26.7 72 22.3 77 77 SE 6 9 29.84 1010 10 16 0.00 0.00
8:15 pm 20:15 Sunny 80 26.4 72 22.3 78 78 SSE 6 9 29.84 1010 10 16 0.00 0.00
8:35 pm 20:35 Sunny 79 25.9 73 22.7 83 83 Calm 29.84 1011 10 16 0.00 0.00
8:55 pm 20:55 Sunny 76 24.3 74 23.2 94 94 Calm 29.85 1011 10 16 0.00 0.00
9:15 pm 21:15 Clear 73 23 73 23 100 100 Calm 29.86 1011 7 11 0.00 0.00
9:35 pm 21:35 Hazy 73 23 N/A N/A NNW 3 6 29.86 1011 5 8 0.00 0.00
9:55 pm 21:55 Hazy 72 22 N/A N/A Calm 29.87 1012 5 8 0.00 0.00
10:15 pm 22:15 Clear with Mist and Fog 72 22 N/A N/A Calm 29.87 1012 3 4 0.00 0.00
10:35 pm 22:35 Clear with Mist and Fog 70 21 N/A N/A Calm 29.88 1012 3 5 0.00 0.00
10:55 pm 22:55 Mostly Cloudy with Mist and Fog 70 21 N/A N/A Calm 29.88 1012 2 3 0.00 0.00
11:15 pm 23:15 Partly Cloudy with Mist and Fog 70 21 N/A N/A Calm 29.89 1012 3 4 0.00 0.00
11:35 pm 23:35 Partly Cloudy with Mist and Fog 70 21 N/A N/A Calm 29.89 1012 4 6 0.00 0.00
11:55 pm 23:55 Partly Cloudy with Mist and Fog 70 21 N/A N/A NNE 3 6 29.89 1012 3 4 0.00 0.00

Powered by AerisWeather